DECAYED

STARLINK-31072, 58599 (Decayed)

Orbit data source: Space-Track

STARLINK-31072, 58599 was a payload satellite owned by SpaceX/Seattle (US) in LEO that was launched on Tue, 19 Dec 2023 UTC via an FALCON 9 launch vehicle from the Air Force Eastern Test Range (AFETR). Payload-class satellites include a variety of spacecraft equipped with specific instruments for various scientific and technological missions. These include communications satellites like Starlink; space stations such as the ISS; scientific satellites like the Hubble; Earth observation satellites from companies like Planet Labs, Umbra, and HawkEye 360; GPS; miniature CubeSats for education and research; and military/defense satellites.

Not visible in the next 10 days
Identifier
58599, 2023-200L
Orbit
Decayed
Country
Flag of USUS
Related business
Manufacturer
SpaceX/Seattle
Mission
Decayed Commercial Communications
Bus & Motor
STARLINK V2M, Unknown motor
Mass
730 kg wet, ~700 kg dry
Launch date (UTC)
2023-12-19 (3 years ago)
Launch vehicle
FALCON 9
Launch site
Air Force Eastern Test Range (AFETR)
Object type
Payload
Rocket body
Debris
Shape & HBR
Box + 2 Pan, 17.7 m
Radar Cross Section
33.884 m², Large (>1 m²)

Expand to show TLE details & history
Last TLE update: 1 year ago

TLE from 1 year ago
0 STARLINK-31072
1 58599U 23200L   25142.50482537  .08388174  88681-5  33523-2 0  9994
2 58599  42.9810 152.7202 0012479 116.3918  17.9703 16.22419399 81667
Epoch: 2025-05-22T12:06Z
TLE epoch observation values (Epoch: 2025-05-22T12:06:56.911Z)
Latitude
29.26013°
Longitude
-126.09992°
Altitude
205.585 km
Speed
7.792 km/s
True Right ascension
19h 44m 02s
True Declination
29° 06' 05"
Sunlit
Object was in full shadow at epoch
Visualization orbit readout
Latitude
Unknown
Longitude
Unknown
Altitude
Unknown
Speed
Unknown
Apparent Right ascension
Unknown
Apparent Declination
Unknown
Sunlit
N/A
Visualization observer readout
Local Sidereal Time
21:26:52
Azimuth
Unknown
Elevation
Unknown
Doppler factor
Unknown
Orbital elements
Apogee altitude
223.247 km
Perigee altitude
206.791 km
Semi-major axis
6,593.156 km
Eccentricity
0.00125
Inclination
42.981°
RAAN
152.7202°
Arg. of periapsis
116.3918°
True anomaly
18.01448°
Mean anomaly
17.9703°
Eccentric anomaly
17.99239°
Mean motion
4.05418 °/min
Orbital period
88.8 mins
BSTAR
0.0033523
Loading maneuver chart data...
Computing Atmospheric mass density...
Loading historical data...
Loading historical data...
Loading historical data...
Loading historical data...
Loading historical data...
Loading historical data...
Loading historical data...

Documentation

Showing up to 5 results
|